Meteo Giornale » Osservazioni meteo Italia » Palermo-Punta Raisi

ore: 23:50 - Osservazioni Meteo Palermo-Punta Raisi
Lat. 38° 11' N Lon. 13° 6' E Alt. 21 metri s.l.m.

sereno Europe/Rome

17 °C

Sereno

Temp. 24 Ore

15 °C

22 °C

Sud

7.4 Km/h

Dew point 14 °C

Umidità 82 %

Visibilità  10 Km

Il sole sorge alle ore 07:18

Il sole tramonta alle ore 18:26

Data e Ora Cielo e Fenomeni T °C DP °C Um. % Pres. hPa Vis. km Vento km/h
Ieri h: 23:50 sereno Sereno 17 14 82 1018 10 S 7.4
Ieri h: 23:20 sereno Sereno 17 14 82 1018 10 S/SO 9.3
Ieri h: 22:50 sereno Sereno 19 14 72 1018 10 N 5.5
Ieri h: 21:50 sereno Sereno 19 14 72 1018 10 N 5.5
Ieri h: 21:20 sereno Sereno 19 14 72 1018 10 N 5.5
Ieri h: 20:50 sereno Sereno 20 15 72 1018 10 N 5.5
Ieri h: 20:20 sereno Sereno 20 15 72 1018 10 E/SE 7.4
Ieri h: 19:50 sereno Sereno 20 15 72 1018 10 NE 24
Ieri h: 19:20 sereno Sereno 20 15 72 1018 10 NE 25.9
Ieri h: 18:50 sereno Sereno 21 15 68 1018 10 NE 27.8
Ieri h: 18:20 sereno Sereno 21 15 68 1018 10 NE 27.8
Ieri h: 17:50 poco_nuvoloso Poco Nuvoloso 22 16 68 1018 10 NE 29.6
Ieri h: 17:20 sereno Sereno 22 16 68 1018 10 NE 31.5
Ieri h: 16:50 sereno Sereno 22 16 68 1018 10 NE 31.5
Ieri h: 16:20 sereno Sereno 22 16 68 1018 10 N/NE 33.3
Ieri h: 15:50 sereno Sereno 22 16 68 1018 10 N/NE 27.8
Ieri h: 15:20 sereno Sereno 22 16 68 1019 10 NE 29.6
Ieri h: 14:50 poco_nuvoloso Poco Nuvoloso 22 16 68 1019 10 N/NE 29.6
Ieri h: 14:20 poco_nuvoloso Poco Nuvoloso 22 16 68 1019 10 N/NE 24
Ieri h: 13:50 sereno Sereno 22 16 68 1020 10 N/NE 9.3
Ieri h: 13:20 sereno Sereno 22 16 68 1020 10 N/NO 9.3
Ieri h: 12:50 poco_nuvoloso Poco Nuvoloso 22 15 64 1021 10 O/NO 9.3
Ieri h: 12:20 poco_nuvoloso Poco Nuvoloso 21 14 64 1021 10 N/NO 11.1
Ieri h: 11:50 poco_nuvoloso Poco Nuvoloso 21 15 68 1021 10 NO 7.4
Ieri h: 11:20 poco_nuvoloso Poco Nuvoloso 21 15 68 1021 10 N 7.4
Ieri h: 10:50 sereno Sereno 21 15 68 1021 10 N 7.4
Ieri h: 10:20 sereno Sereno 20 15 72 1021 10 N 11.1
Ieri h: 09:50 sereno Sereno 20 15 72 1021 10 N 7.4
Ieri h: 09:20 sereno Sereno 19 15 77 1021 10 S/SE 7.4
Ieri h: 08:50 sereno Sereno 16 14 87 1021 10 S 7.4
Ieri h: 08:20 poco_nuvoloso Poco Nuvoloso 16 14 87 1021 10 S/SE 7.4
Ieri h: 07:50 poco_nuvoloso Poco Nuvoloso 15 13 87 1021 10 N 5.5
Ieri h: 07:20 nuvoloso Nuvoloso 16 14 87 1021 10 N 5.5
Ieri h: 06:50 poco_nuvoloso Poco Nuvoloso 16 14 87 1021 10 E/NE 9.3
Ieri h: 06:20 poco_nuvoloso Poco Nuvoloso 16 14 87 1021 10 N 5.5
Ieri h: 05:50 sereno Sereno 17 14 82 1021 10 N 1.8
Ieri h: 05:20 sereno Sereno 16 14 87 1021 10 N 3.7
Ieri h: 04:50 sereno Sereno 17 15 88 1021 10 S 7.4
Ieri h: 04:20 sereno Sereno 16 14 87 1021 10 N 5.5
Ieri h: 03:50 sereno Sereno 17 16 93 1021 10 N 1.8
Ieri h: 03:20 sereno Sereno 17 15 88 1022 10 N 3.7
Ieri h: 02:50 sereno Sereno 18 16 88 1022 10 N 1.8
Ieri h: 02:20 sereno Sereno 17 15 88 1022 10 N 3.7
Ieri h: 01:50 sereno Sereno 17 15 88 1022 10 S/SE 7.4
Ieri h: 01:20 sereno Sereno 17 15 88 1022 10 S/SE 7.4
Ieri h: 00:50 sereno Sereno 17 15 88 1023 10 S/SE 7.4